K4SHP-16 Weather Reports


time (UTC)temp
C
wind
direction
speed
KPH
gust
KPH
rain 1hr
cm
rain 24hr
cm
rain mn
cm
humidity
%
barometer
mb
20260505201804 26 167 16.1 25.7 0.00 0.00 0.00 54 1016.8
20260505200925 26 174 14.5 30.6 0.00 0.00 0.00 52 1016.7
20260505200004 26 169 14.5 32.2 0.00 0.00 0.00 51 1016.8
20260505195404 26 172 11.3 32.2 0.00 0.00 0.00 52 1016.8
20260505194504 26 174 14.5 24.1 0.00 0.00 0.00 52 1016.7
20260505193604 26 160 14.5 25.7 0.00 0.00 0.00 51 1016.9
20260505192704 26 170 12.9 27.4 0.00 0.00 0.00 51 1017.2
20260505191825 26 163 14.5 22.5 0.00 0.00 0.00 50 1017.2
20260505190904 26 171 14.5 24.1 0.00 0.00 0.00 51 1017.5
20260505190032 26 184 12.9 22.5 0.00 0.00 0.00 52 1017.6
20260505185425 26 172 12.9 24.1 0.00 0.00 0.00 51 1017.7
20260505184504 26 175 14.5 24.1 0.00 0.00 0.00 51 1017.6
20260505183625 26 164 12.9 27.4 0.00 0.00 0.00 52 1017.6
20260505182725 26 165 14.5 24.1 0.00 0.00 0.00 51 1017.6
20260505181804 26 176 14.5 27.4 0.00 0.00 0.00 51 1017.6
20260505180904 26 175 12.9 22.5 0.00 0.00 0.00 52 1017.4
20260505180004 26 180 12.9 22.5 0.00 0.00 0.00 52 1017.8
20260505175404 26 182 11.3 37.0 0.00 0.00 0.00 52 1018.0
20260505174525 26 172 11.3 37.0 0.00 0.00 0.00 52 1018.0
20260505173625 26 175 12.9 29.0 0.00 0.00 0.00 50 1018.1
20260505172704 26 164 12.9 22.5 0.00 0.00 0.00 52 1018.1
20260505171804 26 181 11.3 20.9 0.00 0.00 0.00 53 1018.2
20260505170904 26 175 8.0 19.3 0.00 0.00 0.00 53 1018.1
20260505170004 26 192 8.0 22.5 0.00 0.00 0.00 57 1018.3
20260505165425 25 163 9.7 22.5 0.00 0.00 0.00 57 1018.3
20260505164525 26 167 8.0 17.7 0.00 0.00 0.00 54 1018.3
20260505163625 25 166 9.7 19.3 0.00 0.00 0.00 56 1018.5
20260505162704 25 177 8.0 25.7 0.00 0.00 0.00 56 1018.7
20260505161804 26 167 12.9 19.3 0.00 0.00 0.00 56 1018.8
20260505160925 26 174 9.7 17.7 0.00 0.00 0.00 55 1018.9
20260505152704 25 181 8.0 17.7 0.00 0.00 0.00 59 1019.0
20260505151804 25 182 6.4 17.7 0.00 0.00 0.00 59 1018.9
20260505150904 25 183 4.8 22.5 0.00 0.00 0.00 58 1018.9
20260505124511 20 264 1.6 6.4 0.00 0.00 0.00 79 1018.8
20260505123604 20 255 0.0 3.2 0.00 0.00 0.00 81 1018.8
20260505122725 18 248 0.0 1.6 0.00 0.00 0.00 84 1018.8
20260505121804 17 275 0.0 4.8 0.00 0.00 0.00 87 1018.8
20260505120904 17 271 0.0 1.6 0.00 0.00 0.00 89 1018.8
20260505120005 16 304 0.0 3.2 0.00 0.00 0.00 89 1018.7
20260505115404 16 0 0.0 0.0 0.00 0.00 0.00 91 1018.6
20260505114504 15 0 0.0 0.0 0.00 0.00 0.00 92 1018.4
20260505113604 14 0 0.0 0.0 0.00 0.00 0.00 93 1018.4
20260505112704 13 0 0.0 0.0 0.00 0.00 0.00 93 1018.4
20260505111804 12 0 0.0 0.0 0.00 0.00 0.00 93 1018.1
20260505110904 11 0 0.0 0.0 0.00 0.00 0.00 93 1018.0
20260505101825 9 0 0.0 0.0 0.00 0.00 0.00 92 1017.5
20260505100925 9 0 0.0 0.0 0.00 0.00 0.00 92 1017.4
20260505100025 10 0 0.0 0.0 0.00 0.00 0.00 92 1017.5
20260505095404 10 0 0.0 0.0 0.00 0.00 0.00 92 1017.4
20260505094525 9 0 0.0 0.0 0.00 0.00 0.00 92 1017.4
20260505093625 9 0 0.0 0.0 0.00 0.00 0.00 92 1017.2
20260505092704 10 0 0.0 0.0 0.00 0.00 0.00 92 1017.2
20260505091804 10 0 0.0 0.0 0.00 0.00 0.00 92 1017.1
20260505090904 10 0 0.0 0.0 0.00 0.00 0.00 92 1017.2
20260505090004 10 0 0.0 0.0 0.00 0.00 0.00 92 1017.1
20260505085404 10 0 0.0 0.0 0.00 0.00 0.00 92 1017.1
20260505084504 10 0 0.0 0.0 0.00 0.00 0.00 91 1016.9
20260505083604 9 0 0.0 0.0 0.00 0.00 0.00 91 1017.0
20260505082704 10 0 0.0 0.0 0.00 0.00 0.00 91 1016.9
20260505081825 10 0 0.0 0.0 0.00 0.00 0.00 91 1016.9
20260505080904 10 0 0.0 0.0 0.00 0.00 0.00 91 1016.8
20260505080004 10 0 0.0 0.0 0.00 0.00 0.00 91 1017.0
20260505075404 10 0 0.0 0.0 0.00 0.00 0.00 91 1016.9
20260505074525 10 0 0.0 0.0 0.00 0.00 0.00 91 1016.9
20260505073604 10 0 0.0 0.0 0.00 0.00 0.00 90 1016.9
20260505072704 10 0 0.0 0.0 0.00 0.00 0.00 90 1017.0
20260505071804 10 0 0.0 0.0 0.00 0.00 0.00 90 1016.8
20260505070925 10 0 0.0 0.0 0.00 0.00 0.00 90 1016.9
20260505070025 10 0 0.0 0.0 0.00 0.00 0.00 90 1016.9
20260505065404 10 0 0.0 0.0 0.00 0.00 0.00 90 1016.9
20260505064525 10 0 0.0 0.0 0.00 0.00 0.00 89 1017.0
20260505063604 11 0 0.0 0.0 0.00 0.00 0.00 89 1017.0
20260505062725 11 0 0.0 0.0 0.00 0.00 0.00 90 1017.2
20260505061825 11 0 0.0 0.0 0.00 0.00 0.00 89 1017.1
20260505060904 11 0 0.0 0.0 0.00 0.00 0.00 89 1017.4
20260505060004 11 0 0.0 0.0 0.00 0.00 0.00 89 1017.3
20260505055404 11 0 0.0 0.0 0.00 0.00 0.00 89 1017.5
20260505054504 11 0 0.0 0.0 0.00 0.00 0.00 88 1017.4
20260505053604 11 0 0.0 0.0 0.00 0.00 0.00 88 1017.7
20260505052704 11 0 0.0 0.0 0.00 0.00 0.00 88 1017.7
20260505051804 11 0 0.0 0.0 0.00 0.00 0.00 88 1017.8
20260505050904 12 0 0.0 0.0 0.00 0.00 0.00 89 1017.7
20260505040904 12 0 0.0 0.0 0.00 0.00 0.00 86 1017.7
20260505040005 12 0 0.0 0.0 0.00 0.00 0.00 85 1017.7
20260505035404 12 0 0.0 0.0 0.00 0.00 0.00 85 1017.8
20260505034504 13 0 0.0 0.0 0.00 0.00 0.00 85 1017.7
20260505033604 13 0 0.0 0.0 0.00 0.00 0.00 84 1017.9
20260505032732 13 0 0.0 0.0 0.00 0.00 0.00 84 1017.7
20260505031804 13 0 0.0 0.0 0.00 0.00 0.00 83 1017.8
20260505030904 13 0 0.0 0.0 0.00 0.00 0.00 83 1017.8
20260505030004 13 0 0.0 0.0 0.00 0.00 0.00 84 1017.9
20260505025404 13 0 0.0 0.0 0.00 0.00 0.00 82 1017.8
20260505024504 14 0 0.0 0.0 0.00 0.00 0.00 80 1017.9
20260505023625 14 0 0.0 0.0 0.00 0.00 0.00 80 1017.8
20260505022704 15 0 0.0 0.0 0.00 0.00 0.00 78 1018.0
20260505021825 15 0 0.0 0.0 0.00 0.00 0.00 77 1017.8
20260505020904 16 0 0.0 0.0 0.00 0.00 0.00 76 1017.8
20260505020004 16 0 0.0 0.0 0.00 0.00 0.00 75 1017.8
20260505015404 16 0 0.0 0.0 0.00 0.00 0.00 74 1017.8
20260505014504 16 186 0.0 4.8 0.00 0.00 0.00 73 1017.8
20260505013640 17 187 0.0 6.4 0.00 0.00 0.00 72 1017.7
20260505012703 17 170 0.0 4.8 0.00 0.00 0.00 71 1017.5
20260505011811 17 196 1.6 6.4 0.00 0.00 0.00 70 1017.3
20260505010925 17 208 1.6 6.4 0.00 0.00 0.00 70 1017.2
20260505010004 17 194 3.2 6.4 0.00 0.00 0.00 68 1017.1
20260505005425 18 187 3.2 8.0 0.00 0.00 0.00 68 1017.0
20260505004503 18 174 4.8 9.7 0.00 0.00 0.00 66 1016.9
20260505003604 18 183 4.8 9.7 0.00 0.00 0.00 65 1016.7
20260505002725 18 182 6.4 11.3 0.00 0.00 0.00 64 1016.6
20260505001803 19 191 3.2 12.9 0.00 0.00 0.00 64 1016.6
20260505000904 19 189 6.4 11.3 0.00 0.00 0.00 63 1016.4
20260505000004 20 186 6.4 12.9 0.00 0.00 0.00 62 1016.5
20260504235404 20 185 8.0 14.5 0.00 0.00 0.00 62 1016.6
20260504234504 20 184 9.7 19.3 0.00 0.00 0.00 60 1016.4
20260504233604 20 187 9.7 24.1 0.00 0.00 0.00 59 1016.4
20260504232704 21 182 11.3 24.1 0.00 0.00 0.00 58 1016.3
20260504231803 21 187 9.7 20.9 0.00 0.00 0.00 57 1016.3
20260504230903 21 183 9.7 24.1 0.00 0.00 0.00 56 1016.2
20260504230004 21 183 11.3 25.7 0.00 0.00 0.00 55 1016.3
20260504225425 21 183 11.3 25.7 0.00 0.00 0.00 55 1016.3
20260504224504 22 187 12.9 25.7 0.00 0.00 0.00 54 1016.3
20260504223603 22 189 11.3 22.5 0.00 0.00 0.00 54 1016.3
20260504222704 22 185 14.5 25.7 0.00 0.00 0.00 54 1016.3
20260504221804 22 182 12.9 25.7 0.00 0.00 0.00 55 1016.2
20260504220904 23 181 12.9 29.0 0.00 0.00 0.00 54 1016.2
20260504220004 23 183 16.1 29.0 0.00 0.00 0.00 54 1016.2
20260504215424 23 179 17.7 30.6 0.00 0.00 0.00 53 1016.1
20260504214503 23 177 16.1 25.7 0.00 0.00 0.00 52 1016.0
20260504213603 23 183 14.5 25.7 0.00 0.00 0.00 53 1015.9
20260504212725 24 185 14.5 29.0 0.00 0.00 0.00 52 1016.0
20260504211803 24 173 17.7 29.0 0.00 0.00 0.00 53 1016.0
20260504210904 24 177 19.3 29.0 0.00 0.00 0.00 54 1016.1
20260504210004 25 174 17.7 27.4 0.00 0.00 0.00 52 1016.0
20260504205403 25 177 16.1 27.4 0.00 0.00 0.00 53 1016.1
20260504204524 25 173 16.1 29.0 0.00 0.00 0.00 52 1016.2
20260504203603 25 174 17.7 29.0 0.00 0.00 0.00 52 1016.2
20260504202703 26 180 14.5 22.5 0.00 0.00 0.00 47 1016.2